| time (UTC) | temp C | wind direction | speed KPH | gust KPH | rain 1hr cm | rain 24hr cm | rain mn cm | humidity % | barometer mb |
| 20260506035005 | 23 | 86 | 3.2 | 6.4 | 0.00 | 0.00 | 0.00 | 93 | 1001.9 |
| 20260506034504 | 23 | 83 | 3.2 | 6.4 | 0.00 | 0.00 | 0.00 | 92 | 1001.9 |
| 20260506033504 | 23 | 84 | 1.6 | 3.2 | 0.00 | 0.00 | 0.00 | 92 | 1002.0 |
| 20260506032505 | 23 | 77 | 1.6 | 6.4 | 0.00 | 0.00 | 0.00 | 92 | 1002.0 |
| 20260506032004 | 23 | 67 | 1.6 | 6.4 | 0.00 | 0.00 | 0.00 | 92 | 1002.0 |
| 20260506031504 | 23 | 62 | 1.6 | 6.4 | 0.00 | 0.00 | 0.00 | 93 | 1001.9 |
| 20260506031004 | 23 | 61 | 3.2 | 9.7 | 0.00 | 0.00 | 0.00 | 93 | 1001.8 |
| 20260506030504 | 23 | 62 | 3.2 | 9.7 | 0.00 | 0.00 | 0.00 | 94 | 1001.8 |
| 20260506030005 | 23 | 68 | 0.0 | 6.4 | 0.00 | 0.00 | 0.00 | 94 | 1002.0 |
| 20260506025005 | 22 | 70 | 1.6 | 6.4 | 0.00 | 0.00 | 0.00 | 94 | 1002.1 |
| 20260506024504 | 22 | 71 | 3.2 | 6.4 | 0.00 | 0.00 | 0.00 | 94 | 1002.0 |
| 20260506024004 | 22 | 68 | 3.2 | 6.4 | 0.00 | 0.00 | 0.00 | 94 | 1002.2 |
| 20260506023504 | 22 | 68 | 3.2 | 6.4 | 0.00 | 0.00 | 0.00 | 94 | 1002.0 |
| 20260506023005 | 22 | 70 | 3.2 | 6.4 | 0.00 | 0.00 | 0.00 | 94 | 1002.1 |
| 20260506022504 | 22 | 78 | 3.2 | 6.4 | 0.00 | 0.00 | 0.00 | 94 | 1002.2 |
| 20260506022004 | 22 | 87 | 3.2 | 3.2 | 0.00 | 0.00 | 0.00 | 94 | 1002.4 |
| 20260506021504 | 23 | 97 | 3.2 | 6.4 | 0.00 | 0.00 | 0.00 | 94 | 1002.4 |
| 20260506020504 | 23 | 97 | 0.0 | 6.4 | 0.00 | 0.00 | 0.00 | 94 | 1002.4 |
| 20260506020005 | 23 | 91 | 0.0 | 6.4 | 0.00 | 0.00 | 0.00 | 94 | 1002.6 |
| 20260506015504 | 23 | 90 | 1.6 | 3.2 | 0.00 | 0.00 | 0.00 | 94 | 1002.3 |
| 20260506015004 | 23 | 90 | 1.6 | 3.2 | 0.00 | 0.00 | 0.00 | 94 | 1002.4 |
| 20260506014505 | 23 | 90 | 0.0 | 3.2 | 0.00 | 0.00 | 0.00 | 94 | 1002.4 |
| 20260506014004 | 23 | 90 | 1.6 | 6.4 | 0.00 | 0.00 | 0.00 | 94 | 1002.5 |
| 20260506013504 | 23 | 90 | 0.0 | 6.4 | 0.00 | 0.00 | 0.00 | 94 | 1002.5 |
| 20260506013005 | 23 | 90 | 1.6 | 3.2 | 0.00 | 0.00 | 0.00 | 94 | 1002.5 |
| 20260506012504 | 23 | 90 | 0.0 | 3.2 | 0.00 | 0.00 | 0.00 | 94 | 1002.4 |
| 20260506012004 | 23 | 90 | 1.6 | 3.2 | 0.00 | 0.00 | 0.00 | 94 | 1002.4 |
| 20260506011504 | 23 | 90 | 1.6 | 3.2 | 0.00 | 0.00 | 0.00 | 94 | 1002.3 |
| 20260506010504 | 23 | 104 | 1.6 | 3.2 | 0.00 | 0.00 | 0.00 | 94 | 1002.4 |
| 20260506010005 | 23 | 115 | 1.6 | 3.2 | 0.00 | 0.00 | 0.00 | 94 | 1002.2 |
| 20260506005505 | 23 | 111 | 1.6 | 3.2 | 0.00 | 0.00 | 0.00 | 94 | 1002.2 |
| 20260506005005 | 23 | 111 | 0.0 | 3.2 | 0.00 | 0.00 | 0.00 | 94 | 1002.2 |
| 20260506004504 | 23 | 116 | 1.6 | 3.2 | 0.00 | 0.00 | 0.00 | 94 | 1002.4 |
| 20260506003504 | 23 | 121 | 1.6 | 3.2 | 0.00 | 0.00 | 0.00 | 94 | 1002.4 |
| 20260506003004 | 23 | 111 | 1.6 | 3.2 | 0.00 | 0.00 | 0.00 | 94 | 1002.6 |
| 20260506002504 | 23 | 111 | 0.0 | 3.2 | 0.00 | 0.00 | 0.00 | 94 | 1002.5 |
| 20260506002004 | 23 | 111 | 0.0 | 3.2 | 0.00 | 0.00 | 0.00 | 93 | 1002.3 |
| 20260506001504 | 23 | 111 | 0.0 | 3.2 | 0.00 | 0.00 | 0.00 | 93 | 1002.4 |
| 20260506001005 | 23 | 111 | 0.0 | 3.2 | 0.00 | 0.00 | 0.00 | 93 | 1002.3 |
| 20260506000505 | 23 | 111 | 1.6 | 3.2 | 0.00 | 0.00 | 0.00 | 93 | 1002.3 |
| 20260506000004 | 23 | 111 | 1.6 | 3.2 | 0.00 | 0.00 | 0.00 | 93 | 1002.3 |
| 20260505235005 | 23 | 108 | 3.2 | 6.4 | 0.00 | 0.00 | 0.00 | 93 | 1002.1 |
| 20260505233504 | 23 | 121 | 3.2 | 6.4 | 0.00 | 0.00 | 0.00 | 92 | 1001.7 |
| 20260505233005 | 23 | 123 | 3.2 | 6.4 | 0.00 | 0.00 | 0.00 | 92 | 1001.9 |
| 20260505232504 | 23 | 133 | 3.2 | 6.4 | 0.00 | 0.00 | 0.00 | 92 | 1002.0 |
| 20260505232005 | 23 | 131 | 3.2 | 6.4 | 0.00 | 0.00 | 0.00 | 92 | 1001.9 |
| 20260505231504 | 23 | 123 | 3.2 | 9.7 | 0.00 | 0.00 | 0.00 | 92 | 1001.9 |
| 20260505231005 | 24 | 122 | 4.8 | 9.7 | 0.00 | 0.00 | 0.00 | 92 | 1002.2 |
| 20260505230005 | 24 | 129 | 3.2 | 6.4 | 0.00 | 0.00 | 0.00 | 91 | 1002.0 |
| 20260505225504 | 24 | 121 | 3.2 | 6.4 | 0.00 | 0.00 | 0.00 | 91 | 1001.9 |
| 20260505225005 | 24 | 127 | 3.2 | 6.4 | 0.00 | 0.00 | 0.00 | 91 | 1001.8 |
| 20260505224505 | 24 | 133 | 3.2 | 6.4 | 0.00 | 0.00 | 0.00 | 91 | 1001.8 |
| 20260505224005 | 24 | 135 | 3.2 | 6.4 | 0.00 | 0.00 | 0.00 | 91 | 1001.6 |
| 20260505223504 | 24 | 128 | 3.2 | 3.2 | 0.00 | 0.00 | 0.00 | 90 | 1001.5 |
| 20260505223004 | 24 | 124 | 1.6 | 6.4 | 0.00 | 0.00 | 0.00 | 90 | 1001.5 |
| 20260505222504 | 24 | 125 | 0.0 | 6.4 | 0.00 | 0.00 | 0.00 | 90 | 1001.6 |
| 20260505221504 | 25 | 129 | 3.2 | 6.4 | 0.00 | 0.00 | 0.00 | 90 | 1001.3 |
| 20260505221005 | 25 | 131 | 1.6 | 6.4 | 0.00 | 0.00 | 0.00 | 89 | 1001.4 |
| 20260505220505 | 25 | 135 | 3.2 | 6.4 | 0.00 | 0.00 | 0.00 | 88 | 1001.4 |
| 20260505220005 | 25 | 134 | 1.6 | 3.2 | 0.00 | 0.00 | 0.00 | 87 | 1001.4 |
| 20260505215504 | 25 | 123 | 1.6 | 3.2 | 0.00 | 0.00 | 0.00 | 87 | 1001.5 |
| 20260505215005 | 25 | 112 | 3.2 | 3.2 | 0.00 | 0.00 | 0.00 | 86 | 1001.3 |
| 20260505214505 | 25 | 112 | 1.6 | 3.2 | 0.00 | 0.00 | 0.00 | 86 | 1001.3 |
| 20260505213505 | 25 | 0 | 0.0 | 0.0 | 0.00 | 0.00 | 0.00 | 85 | 1001.3 |
| 20260505213005 | 26 | 0 | 0.0 | 0.0 | 0.00 | 0.00 | 0.00 | 84 | 1001.1 |
| 20260505212504 | 26 | 112 | 0.0 | 3.2 | 0.00 | 0.00 | 0.00 | 83 | 1001.1 |
| 20260505212004 | 26 | 112 | 0.0 | 3.2 | 0.00 | 0.00 | 0.00 | 83 | 1001.3 |
| 20260505210005 | 26 | 112 | 3.2 | 3.2 | 0.00 | 0.00 | 0.00 | 81 | 1001.4 |
| 20260505205505 | 27 | 111 | 3.2 | 3.2 | 0.00 | 0.00 | 0.00 | 80 | 1001.3 |
| 20260505204505 | 27 | 113 | 0.0 | 6.4 | 0.00 | 0.00 | 0.00 | 79 | 1001.3 |
| 20260505204005 | 27 | 111 | 0.0 | 6.4 | 0.00 | 0.00 | 0.00 | 79 | 1001.4 |
| 20260505203504 | 27 | 105 | 4.8 | 6.4 | 0.00 | 0.00 | 0.00 | 79 | 1001.2 |
| 20260505203005 | 27 | 94 | 3.2 | 6.4 | 0.00 | 0.00 | 0.00 | 78 | 1001.2 |
| 20260505202505 | 27 | 78 | 1.6 | 3.2 | 0.00 | 0.00 | 0.00 | 77 | 1001.4 |
| 20260505202004 | 27 | 66 | 1.6 | 6.4 | 0.00 | 0.00 | 0.00 | 78 | 1001.7 |
| 20260505201504 | 27 | 69 | 3.2 | 6.4 | 0.00 | 0.00 | 0.00 | 78 | 1001.2 |
| 20260505201005 | 27 | 86 | 1.6 | 3.2 | 0.00 | 0.00 | 0.00 | 78 | 1001.5 |
| 20260505200505 | 27 | 95 | 3.2 | 3.2 | 0.00 | 0.00 | 0.00 | 78 | 1001.3 |
| 20260505200005 | 27 | 92 | 1.6 | 3.2 | 0.00 | 0.00 | 0.00 | 79 | 1001.1 |
| 20260505195504 | 27 | 74 | 0.0 | 6.4 | 0.00 | 0.00 | 0.00 | 80 | 1001.5 |
| 20260505195004 | 27 | 68 | 1.6 | 6.4 | 0.00 | 0.00 | 0.00 | 80 | 1001.5 |
| 20260505193505 | 26 | 76 | 1.6 | 6.4 | 0.00 | 0.00 | 0.00 | 82 | 1001.6 |
| 20260505193005 | 26 | 71 | 3.2 | 6.4 | 0.00 | 0.00 | 0.00 | 82 | 1001.7 |
| 20260505192504 | 26 | 54 | 0.0 | 6.4 | 0.00 | 0.00 | 0.00 | 81 | 1001.6 |
| 20260505191504 | 26 | 68 | 1.6 | 6.4 | 0.00 | 0.00 | 0.00 | 81 | 1001.9 |
| 20260505191004 | 26 | 73 | 1.6 | 9.7 | 0.00 | 0.00 | 0.00 | 81 | 1001.8 |
| 20260505190005 | 26 | 75 | 3.2 | 6.4 | 0.00 | 0.00 | 0.00 | 81 | 1001.8 |
| 20260505185005 | 26 | 96 | 3.2 | 9.7 | 0.00 | 0.00 | 0.00 | 80 | 1001.7 |
| 20260505184504 | 26 | 88 | 4.8 | 9.7 | 0.00 | 0.00 | 0.00 | 80 | 1001.7 |
| 20260505183504 | 27 | 79 | 3.2 | 12.9 | 0.00 | 0.00 | 0.00 | 77 | 1001.5 |
| 20260505183005 | 27 | 90 | 4.8 | 12.9 | 0.00 | 0.00 | 0.00 | 77 | 1001.6 |
| 20260505182504 | 27 | 87 | 6.4 | 12.9 | 0.00 | 0.00 | 0.00 | 79 | 1001.6 |
| 20260505182005 | 27 | 58 | 6.4 | 12.9 | 0.00 | 0.00 | 0.00 | 78 | 1001.5 |
| 20260505181005 | 27 | 49 | 3.2 | 11.3 | 0.00 | 0.00 | 0.00 | 77 | 1001.4 |
| 20260505180505 | 27 | 62 | 6.4 | 12.9 | 0.00 | 0.00 | 0.00 | 78 | 1001.3 |
| 20260505180004 | 26 | 63 | 4.8 | 12.9 | 0.00 | 0.00 | 0.00 | 79 | 1001.5 |
| 20260505175504 | 26 | 53 | 4.8 | 11.3 | 0.00 | 0.00 | 0.00 | 79 | 1001.5 |
| 20260505175004 | 26 | 62 | 6.4 | 9.7 | 0.00 | 0.00 | 0.00 | 79 | 1001.6 |
| 20260505174004 | 26 | 61 | 3.2 | 9.7 | 0.00 | 0.00 | 0.00 | 80 | 1002.0 |
| 20260505173504 | 26 | 59 | 3.2 | 6.4 | 0.00 | 0.00 | 0.00 | 80 | 1001.9 |
| 20260505173005 | 26 | 55 | 3.2 | 9.7 | 0.00 | 0.00 | 0.00 | 81 | 1002.0 |
| 20260505172505 | 25 | 50 | 3.2 | 9.7 | 0.00 | 0.00 | 0.00 | 82 | 1001.9 |
| 20260505171505 | 26 | 53 | 4.8 | 6.4 | 0.00 | 0.00 | 0.00 | 80 | 1002.1 |
| 20260505170504 | 26 | 55 | 3.2 | 9.7 | 0.00 | 0.00 | 0.00 | 80 | 1002.0 |
| 20260505170004 | 26 | 37 | 3.2 | 11.3 | 0.00 | 0.00 | 0.00 | 80 | 1002.1 |
| 20260505165504 | 25 | 38 | 6.4 | 11.3 | 0.00 | 0.00 | 0.00 | 82 | 1002.5 |
| 20260505164504 | 25 | 52 | 3.2 | 12.9 | 0.00 | 0.00 | 0.00 | 84 | 1002.5 |
| 20260505164005 | 25 | 47 | 4.8 | 9.7 | 0.00 | 0.00 | 0.00 | 86 | 1002.5 |
| 20260505163505 | 25 | 58 | 3.2 | 11.3 | 0.00 | 0.00 | 0.00 | 86 | 1002.5 |
| 20260505163005 | 25 | 68 | 3.2 | 11.3 | 0.00 | 0.00 | 0.00 | 85 | 1002.6 |
| 20260505162504 | 25 | 55 | 4.8 | 11.3 | 0.00 | 0.00 | 0.00 | 86 | 1002.8 |
| 20260505162004 | 24 | 46 | 3.2 | 9.7 | 0.00 | 0.00 | 0.00 | 88 | 1002.8 |
| 20260505161504 | 23 | 45 | 4.8 | 9.7 | 0.00 | 0.00 | 0.00 | 90 | 1002.8 |
| 20260505161004 | 23 | 49 | 3.2 | 6.4 | 0.00 | 0.00 | 0.00 | 91 | 1003.1 |
| 20260505160505 | 23 | 52 | 3.2 | 6.4 | 0.00 | 0.00 | 0.00 | 92 | 1003.3 |
| 20260505153004 | 23 | 49 | 3.2 | 12.9 | 0.00 | 0.00 | 0.00 | 86 | 1003.5 |
| 20260505152504 | 23 | 60 | 3.2 | 12.9 | 0.00 | 0.00 | 0.00 | 87 | 1003.3 |
| 20260505151505 | 23 | 72 | 3.2 | 12.9 | 0.00 | 0.00 | 0.00 | 88 | 1003.8 |
| 20260505151005 | 22 | 80 | 3.2 | 12.9 | 0.00 | 0.00 | 0.00 | 89 | 1003.6 |
| 20260505150505 | 22 | 78 | 3.2 | 12.9 | 0.00 | 0.00 | 0.00 | 89 | 1003.8 |
| 20260505140505 | 21 | 42 | 3.2 | 12.9 | 0.00 | 0.00 | 0.00 | 92 | 1004.4 |
| 20260505125004 | 21 | 57 | 3.2 | 11.3 | 0.00 | 0.00 | 0.00 | 91 | 1004.3 |
| 20260505124005 | 21 | 44 | 3.2 | 11.3 | 0.00 | 0.00 | 0.00 | 92 | 1004.1 |
| 20260505123505 | 21 | 46 | 1.6 | 11.3 | 0.00 | 0.00 | 0.00 | 93 | 1004.1 |
| 20260505122505 | 20 | 68 | 3.2 | 9.7 | 0.00 | 0.00 | 0.00 | 94 | 1004.0 |
| 20260505121504 | 20 | 71 | 3.2 | 9.7 | 0.00 | 0.00 | 0.00 | 95 | 1003.8 |
| 20260505121004 | 20 | 63 | 3.2 | 9.7 | 0.00 | 0.00 | 0.00 | 96 | 1003.9 |
| 20260505120504 | 20 | 61 | 3.2 | 6.4 | 0.00 | 0.00 | 0.00 | 96 | 1003.8 |
| 20260505120005 | 19 | 68 | 3.2 | 9.7 | 0.00 | 0.00 | 0.00 | 96 | 1003.9 |
| 20260505115505 | 19 | 75 | 4.8 | 9.7 | 0.00 | 0.00 | 0.00 | 96 | 1003.8 |
| 20260505115005 | 19 | 76 | 1.6 | 9.7 | 0.00 | 0.00 | 0.00 | 96 | 1003.9 |
| 20260505114504 | 19 | 71 | 4.8 | 9.7 | 0.00 | 0.00 | 0.00 | 97 | 1003.5 |
| 20260505114004 | 19 | 57 | 3.2 | 6.4 | 0.00 | 0.00 | 0.00 | 97 | 1003.7 |
| 20260505113504 | 19 | 55 | 3.2 | 9.7 | 0.00 | 0.00 | 0.00 | 97 | 1003.5 |
| 20260505113004 | 19 | 66 | 3.2 | 9.7 | 0.00 | 0.00 | 0.00 | 97 | 1003.6 |
| 20260505112504 | 19 | 72 | 3.2 | 6.4 | 0.00 | 0.00 | 0.00 | 97 | 1003.5 |
| 20260505112005 | 18 | 63 | 3.2 | 6.4 | 0.00 | 0.00 | 0.00 | 97 | 1003.6 |
| 20260505111505 | 18 | 61 | 3.2 | 6.4 | 0.00 | 0.00 | 0.00 | 97 | 1003.7 |
| 20260505111005 | 18 | 69 | 4.8 | 6.4 | 0.00 | 0.00 | 0.00 | 97 | 1003.6 |
| 20260505110504 | 18 | 73 | 3.2 | 6.4 | 0.00 | 0.00 | 0.00 | 97 | 1003.7 |
| 20260505102004 | 18 | 69 | 3.2 | 6.4 | 0.00 | 0.00 | 0.00 | 97 | 1003.3 |
| 20260505101504 | 18 | 75 | 3.2 | 9.7 | 0.00 | 0.00 | 0.00 | 97 | 1003.1 |
| 20260505101004 | 18 | 82 | 3.2 | 9.7 | 0.00 | 0.00 | 0.00 | 97 | 1003.0 |
| 20260505100504 | 18 | 78 | 1.6 | 6.4 | 0.00 | 0.00 | 0.00 | 97 | 1003.1 |
| 20260505095004 | 18 | 71 | 3.2 | 9.7 | 0.00 | 0.00 | 0.00 | 97 | 1002.9 |
| 20260505094505 | 18 | 78 | 3.2 | 9.7 | 0.00 | 0.00 | 0.00 | 97 | 1002.9 |
| 20260505093504 | 18 | 76 | 3.2 | 11.3 | 0.00 | 0.00 | 0.00 | 97 | 1002.6 |
| 20260505093004 | 18 | 62 | 4.8 | 9.7 | 0.00 | 0.00 | 0.00 | 97 | 1002.8 |
| 20260505092004 | 18 | 65 | 1.6 | 9.7 | 0.00 | 0.00 | 0.00 | 97 | 1002.6 |
| 20260505091504 | 18 | 58 | 3.2 | 9.7 | 0.00 | 0.00 | 0.00 | 97 | 1002.8 |
| 20260505091004 | 18 | 61 | 3.2 | 11.3 | 0.00 | 0.00 | 0.00 | 97 | 1002.6 |
| 20260505090504 | 18 | 79 | 3.2 | 11.3 | 0.00 | 0.00 | 0.00 | 97 | 1002.6 |
| 20260505085504 | 18 | 93 | 3.2 | 9.7 | 0.00 | 0.00 | 0.00 | 97 | 1002.6 |
| 20260505085004 | 18 | 91 | 0.0 | 9.7 | 0.00 | 0.00 | 0.00 | 97 | 1002.6 |
| 20260505084504 | 18 | 89 | 3.2 | 6.4 | 0.00 | 0.00 | 0.00 | 97 | 1002.6 |
| 20260505084004 | 18 | 84 | 1.6 | 6.4 | 0.00 | 0.00 | 0.00 | 97 | 1002.8 |
| 20260505083504 | 18 | 75 | 3.2 | 6.4 | 0.00 | 0.00 | 0.00 | 97 | 1002.8 |
| 20260505083005 | 18 | 74 | 3.2 | 6.4 | 0.00 | 0.00 | 0.00 | 97 | 1002.8 |
| 20260505082505 | 18 | 74 | 3.2 | 6.4 | 0.00 | 0.00 | 0.00 | 97 | 1002.8 |
| 20260505082005 | 18 | 67 | 3.2 | 6.4 | 0.00 | 0.00 | 0.00 | 97 | 1002.9 |
| 20260505081504 | 18 | 68 | 1.6 | 6.4 | 0.00 | 0.00 | 0.00 | 97 | 1002.9 |
| 20260505081004 | 18 | 67 | 3.2 | 6.4 | 0.00 | 0.00 | 0.00 | 97 | 1002.9 |
| 20260505080005 | 18 | 54 | 3.2 | 9.7 | 0.00 | 0.00 | 0.00 | 96 | 1002.7 |
| 20260505075004 | 18 | 79 | 1.6 | 9.7 | 0.00 | 0.00 | 0.00 | 96 | 1002.6 |
| 20260505074504 | 18 | 70 | 3.2 | 9.7 | 0.00 | 0.00 | 0.00 | 96 | 1002.7 |
| 20260505074005 | 18 | 52 | 3.2 | 9.7 | 0.00 | 0.00 | 0.00 | 96 | 1002.6 |
| 20260505073505 | 18 | 53 | 1.6 | 11.3 | 0.00 | 0.00 | 0.00 | 96 | 1002.6 |
| 20260505073004 | 18 | 57 | 4.8 | 11.3 | 0.00 | 0.00 | 0.00 | 96 | 1002.7 |
| 20260505072504 | 18 | 58 | 3.2 | 9.7 | 0.00 | 0.00 | 0.00 | 96 | 1002.8 |
| 20260505072005 | 18 | 52 | 3.2 | 9.7 | 0.00 | 0.00 | 0.00 | 96 | 1002.8 |
| 20260505071505 | 18 | 51 | 3.2 | 9.7 | 0.00 | 0.00 | 0.00 | 96 | 1003.1 |
| 20260505070504 | 19 | 55 | 4.8 | 9.7 | 0.00 | 0.00 | 0.00 | 96 | 1003.1 |
| 20260505070005 | 18 | 55 | 1.6 | 6.4 | 0.00 | 0.00 | 0.00 | 96 | 1003.3 |
| 20260505065504 | 18 | 55 | 3.2 | 6.4 | 0.00 | 0.00 | 0.00 | 96 | 1003.0 |
| 20260505065005 | 18 | 64 | 3.2 | 6.4 | 0.00 | 0.00 | 0.00 | 96 | 1003.0 |
| 20260505064505 | 18 | 73 | 3.2 | 6.4 | 0.00 | 0.00 | 0.00 | 96 | 1003.1 |
| 20260505064005 | 18 | 70 | 1.6 | 6.4 | 0.00 | 0.00 | 0.00 | 96 | 1003.0 |
| 20260505063504 | 18 | 69 | 3.2 | 6.4 | 0.00 | 0.00 | 0.00 | 96 | 1003.0 |
| 20260505063004 | 18 | 74 | 3.2 | 6.4 | 0.00 | 0.00 | 0.00 | 96 | 1003.2 |
| 20260505062504 | 18 | 71 | 1.6 | 6.4 | 0.00 | 0.00 | 0.00 | 96 | 1003.2 |
| 20260505062005 | 18 | 71 | 3.2 | 6.4 | 0.00 | 0.00 | 0.00 | 95 | 1003.3 |
| 20260505061004 | 18 | 62 | 0.0 | 6.4 | 0.00 | 0.00 | 0.00 | 95 | 1003.2 |
| 20260505060505 | 19 | 67 | 3.2 | 6.4 | 0.00 | 0.00 | 0.00 | 95 | 1003.2 |
| 20260505055505 | 19 | 71 | 3.2 | 6.4 | 0.00 | 0.00 | 0.00 | 95 | 1003.3 |
| 20260505055004 | 19 | 73 | 3.2 | 6.4 | 0.00 | 0.00 | 0.00 | 95 | 1003.4 |
| 20260505054505 | 19 | 80 | 3.2 | 6.4 | 0.00 | 0.00 | 0.00 | 95 | 1003.5 |
| 20260505054005 | 19 | 79 | 1.6 | 6.4 | 0.00 | 0.00 | 0.00 | 95 | 1003.3 |
| 20260505053505 | 19 | 66 | 3.2 | 6.4 | 0.00 | 0.00 | 0.00 | 95 | 1003.2 |
| 20260505053004 | 19 | 54 | 3.2 | 6.4 | 0.00 | 0.00 | 0.00 | 95 | 1003.2 |
| 20260505052005 | 19 | 47 | 1.6 | 6.4 | 0.00 | 0.00 | 0.00 | 95 | 1003.4 |
| 20260505051005 | 19 | 39 | 3.2 | 6.4 | 0.00 | 0.00 | 0.00 | 95 | 1003.3 |
| 20260505050505 | 19 | 46 | 1.6 | 6.4 | 0.00 | 0.00 | 0.00 | 94 | 1003.0 |
| 20260505041505 | 19 | 22 | 3.2 | 9.7 | 0.00 | 0.00 | 0.00 | 94 | 1003.2 |
| 20260505040504 | 19 | 38 | 3.2 | 11.3 | 0.00 | 0.00 | 0.00 | 94 | 1003.3 |
| 20260505040005 | 19 | 31 | 3.2 | 11.3 | 0.00 | 0.00 | 0.00 | 94 | 1003.5 |
| 20260505035505 | 19 | 32 | 3.2 | 11.3 | 0.00 | 0.00 | 0.00 | 93 | 1003.5 |